GW3823 Weather Reports


Display with metric or nautical units.
time (UTC)temp
F
wind
direction
speed
MPH
gust
MPH
rain 1hr
in
rain 24hr
in
rain mn
in
humidity
%
barometer
mb
20260505230305 45 50 4.0 10.0 0.02 1.31 0.88 72 1002.7
20260505225805 43 57 5.0 9.0 0.01 1.31 0.88 69 1002.0
20260505225306 45 50 3.0 12.0 0.01 1.30 0.87 71 1002.7
20260505224805 43 79 4.0 12.0 0.01 1.30 0.87 70 1002.0
20260505224304 44 194 2.0 13.0 0.00 1.30 0.87 72 1002.8
20260505223805 41 80 3.0 12.0 0.00 1.30 0.87 73 1001.6
20260505223305 42 71 7.0 17.0 0.00 1.30 0.86 44 1002.1
20260505222805 44 92 9.0 17.0 0.00 1.30 0.86 73 1003.0
20260505222306 42 332 6.0 20.0 0.00 1.30 0.86 44 1001.9
20260505221804 44 37 6.0 18.0 0.00 1.30 0.86 75 1002.4
20260505221305 45 45 5.0 17.0 0.01 1.30 0.86 51 1002.8
20260505220805 43 55 13.0 21.0 0.01 1.30 0.86 76 1002.3
20260505220305 42 72 14.0 22.0 0.02 1.30 0.86 59 1001.5
20260505215804 55 63 7.0 15.0 0.02 1.31 0.86 73 1002.6
20260505215305 44 44 9.0 13.0 0.02 1.32 0.86 71 1001.7
20260505214305 45 60 6.0 14.0 0.02 1.32 0.86 71 1001.7
20260505213805 47 59 6.0 12.0 0.02 1.32 0.86 71 1002.9
20260505213304 42 63 6.0 9.0 0.02 1.32 0.86 71 1002.0
20260505212805 54 94 5.0 8.0 0.02 1.32 0.86 74 1002.7
20260505212306 41 72 6.0 8.0 0.01 1.31 0.86 75 1002.1
20260505210805 41 332 3.0 15.0 0.01 1.31 0.86 62 1001.9
20260505210304 43 255 7.0 24.0 0.00 1.30 0.85 73 1002.7
20260505205805 44 235 9.0 25.0 0.00 1.35 0.85 65 1001.8
20260505205305 59 146 11.0 24.0 0.00 1.35 0.85 32 1001.8
20260505204805 60 253 3.0 13.0 0.00 1.35 0.85 49 1000.9
20260505203805 59 150 5.0 13.0 0.00 1.35 0.85 49 1000.9
20260505203305 59 177 6.0 18.0 0.00 1.35 0.85 33 1002.0
20260505202805 60 110 6.0 14.0 0.00 1.35 0.85 45 1001.2
20260505202306 59 247 3.0 14.0 0.00 1.35 0.85 30 1000.4
20260505201805 59 182 5.0 21.0 0.00 1.35 0.85 48 1001.5
20260505201305 60 168 3.0 13.0 0.00 1.35 0.85 31 1000.8
20260505200804 60 158 5.0 9.0 0.00 1.35 0.85 48 1001.9
20260505200304 59 152 5.0 8.0 0.00 1.35 0.85 48 1001.2
20260505195805 60 178 2.0 10.0 0.00 1.39 0.85 48 1000.6
20260505195305 59 179 5.0 14.0 0.00 1.39 0.85 48 1001.3
20260505194805 52 152 12.0 14.0 0.00 1.39 0.85 48 1000.3
20260505194305 59 172 9.0 16.0 0.00 1.39 0.85 49 1001.4
20260505193805 60 150 9.0 20.0 0.00 1.39 0.85 48 1001.0
20260505193305 59 164 6.0 16.0 0.00 1.39 0.85 49 1002.2
20260505192805 59 184 6.0 12.0 0.00 1.39 0.85 48 1001.5
20260505192306 59 162 5.0 16.0 0.00 1.39 0.85 49 1001.1
20260505191805 59 188 6.0 16.0 0.00 1.40 0.85 50 1002.1
20260505190805 60 138 7.0 23.0 0.00 1.40 0.85 49 1001.9
20260505190305 59 194 12.0 23.0 0.00 1.40 0.85 50 1002.9
20260505185805 56 135 3.0 21.0 0.00 1.40 0.85 48 1004.0
20260505184805 56 280 5.0 17.0 0.00 1.40 0.85 47 1002.6
20260505184305 56 69 2.0 14.0 0.00 1.40 0.85 50 1001.7
20260505183805 56 150 5.0 12.0 0.00 1.40 0.85 54 1002.6
20260505183304 55 118 3.0 8.0 0.00 1.40 0.85 52 1001.6
20260505182805 56 215 2.0 9.0 0.00 1.40 0.85 50 1002.6
20260505182306 55 168 3.0 12.0 0.00 1.40 0.85 53 1001.8
20260505181805 55 18 4.0 10.0 0.00 1.40 0.85 52 1002.8
20260505181304 55 60 5.0 14.0 0.00 1.40 0.85 51 1001.8
20260505180305 55 296 4.0 10.0 0.00 1.40 0.85 57 1002.0
20260505175805 52 97 2.0 10.0 0.00 1.40 0.85 52 1001.6
20260505175305 52 167 7.0 16.0 0.01 1.40 0.85 54 1005.9
20260505174304 52 169 4.0 17.0 0.02 1.40 0.85 54 1001.8
20260505173804 52 158 7.0 20.0 0.03 1.40 0.85 54 1001.7
20260505173305 51 154 6.0 12.0 0.04 1.40 0.85 53 1001.9
20260505172805 52 115 4.0 13.0 0.05 1.40 0.85 54 1003.1
20260505172306 52 104 1.0 12.0 0.06 1.40 0.85 54 1002.1
20260505171804 52 77 5.0 13.0 0.06 1.40 0.85 57 1002.0
20260505171304 52 232 2.0 14.0 0.08 1.40 0.85 59 1004.3
20260505170804 52 124 4.0 12.0 0.10 1.40 0.85 58 1003.2
20260505170305 52 171 4.0 14.0 0.11 1.40 0.85 58 1004.0
20260505165804 49 31 2.0 14.0 0.13 1.40 0.85 59 1006.9
20260505165306 49 154 2.0 12.0 0.15 1.40 0.84 64 1002.4
20260505164805 47 175 5.0 14.0 0.16 1.40 0.84 58 1002.5
20260505164305 49 182 4.0 9.0 0.17 1.39 0.83 65 1002.8
20260505163804 48 193 3.0 8.0 0.18 1.38 0.82 67 1002.6
20260505163305 47 41 2.0 8.0 0.18 1.37 0.81 65 1002.6
20260505162805 48 158 2.0 8.0 0.18 1.36 0.80 73 1002.8
20260505162306 48 172 3.0 9.0 0.18 1.35 0.79 75 1002.8
20260505161805 46 140 3.0 9.0 0.18 1.34 0.78 76 1002.7
20260505160805 46 168 4.0 7.0 0.16 1.31 0.75 79 1003.0
20260505160304 46 170 3.0 5.0 0.15 1.30 0.74 79 1003.0
20260505153305 42 86 3.0 3.0 0.05 1.19 0.63 89 1003.0
20260505152805 42 179 1.0 3.0 0.04 1.18 0.62 84 1003.3
20260505152305 41 101 1.0 5.0 0.03 1.18 0.62 85 1003.1
20260505151805 40 140 2.0 5.0 0.02 1.17 0.61 88 1003.2
20260505151305 40 185 2.0 6.0 0.02 1.16 0.60 88 1003.3
20260505150805 40 160 2.0 6.0 0.01 1.15 0.59 89 1003.5
20260505150305 39 127 2.0 6.0 0.00 1.15 0.59 90 1003.1
20260505130304 34 111 1.0 3.0 0.01 1.14 0.58 98 1003.8
20260505124304 34 55 2.0 5.0 0.00 1.14 0.58 97 1003.8
20260505123804 34 45 2.0 6.0 0.00 1.14 0.58 97 1011.8
20260505123305 33 47 4.0 6.0 0.00 1.14 0.58 97 1003.7
20260505122805 35 67 4.0 5.0 0.00 1.14 0.58 96 1012.5
20260505122305 33 28 3.0 5.0 0.01 1.14 0.58 97 1003.9
20260505120804 34 49 2.0 5.0 0.00 1.13 0.57 97 1003.8
20260505120304 33 61 4.0 5.0 0.00 1.13 0.57 97 1003.8
20260505115803 34 24 1.0 3.0 0.00 1.13 0.57 96 1003.9
20260505115305 33 73 2.0 2.0 0.01 1.13 0.57 97 1009.8
20260505114804 34 127 1.0 1.0 0.01 1.13 0.57 97 1004.0
20260505114304 33 124 1.0 1.0 0.01 1.13 0.57 97 1012.0
20260505113805 34 153 0.0 2.0 0.01 1.13 0.57 97 1003.9
20260505113305 33 81 2.0 2.0 0.01 1.13 0.57 97 1004.0
20260505112305 34 66 1.0 2.0 0.01 1.13 0.57 97 1008.0
20260505111804 34 70 0.0 2.0 0.01 1.13 0.57 96 1004.2
20260505111304 33 55 2.0 2.0 0.01 1.13 0.57 97 1008.6
20260505110804 34 56 1.0 2.0 0.01 1.13 0.57 97 1004.0
20260505101804 35 182 0.0 5.0 0.02 1.12 0.56 97 1008.9
20260505101304 34 71 3.0 5.0 0.02 1.12 0.56 97 1004.2
20260505100803 35 53 2.0 3.0 0.02 1.12 0.56 95 1004.5
20260505100305 33 70 2.0 5.0 0.02 1.12 0.56 97 1004.3
20260505095804 34 56 3.0 5.0 0.03 1.12 0.56 96 1004.3
20260505095305 33 30 3.0 5.0 0.02 1.11 0.55 97 1004.2
20260505094306 34 55 2.0 5.0 0.02 1.11 0.55 95 1004.6
20260505093807 33 42 2.0 3.0 0.01 1.10 0.54 97 1004.6
20260505092306 33 76 3.0 6.0 0.01 1.10 0.54 96 1004.7
20260505091806 34 65 2.0 5.0 0.01 1.10 0.54 95 1004.8
20260505091305 33 50 3.0 6.0 0.01 1.10 0.54 97 1005.0
20260505090806 33 40 1.0 2.0 0.01 1.10 0.54 96 1010.7
20260505090306 34 28 1.0 3.0 0.01 1.10 0.54 95 1005.1
20260505085806 33 78 2.0 3.0 0.09 1.09 0.53 97 1013.5
20260505085306 34 67 1.0 2.0 0.09 1.09 0.53 96 1005.3
20260505084807 33 113 1.0 2.0 0.09 1.09 0.53 96 1005.4
20260505084307 34 79 1.0 3.0 0.09 1.09 0.53 96 1005.5
20260505083806 32 74 1.0 3.0 0.09 1.09 0.53 96 1014.0
20260505083307 33 42 2.0 3.0 0.09 1.09 0.53 96 1005.3
20260505082306 32 46 0.0 3.0 0.09 1.09 0.53 96 1005.6
20260505081806 32 51 1.0 2.0 0.09 1.09 0.53 96 1013.7
20260505081306 33 120 0.0 1.0 0.09 1.09 0.53 96 1005.6
20260505080806 32 66 1.0 3.0 0.09 1.09 0.53 96 1005.7
20260505080306 32 82 2.0 3.0 0.09 1.09 0.53 96 1005.8
20260505075805 32 126 0.0 1.0 0.23 1.00 0.44 96 1005.8
20260505075306 32 76 1.0 1.0 0.23 1.00 0.44 95 1005.8
20260505074806 32 137 0.0 1.0 0.23 1.00 0.44 96 1011.1
20260505074306 32 70 0.0 1.0 0.23 1.00 0.44 95 1005.7
20260505073806 32 127 0.0 1.0 0.23 1.00 0.44 96 1010.6
20260505073306 32 151 0.0 1.0 0.23 1.00 0.44 95 1005.9
20260505072806 33 120 0.0 2.0 0.23 1.00 0.44 96 1005.7
20260505072306 33 64 1.0 2.0 0.23 1.00 0.44 96 1012.0
20260505071806 32 53 2.0 3.0 0.23 1.00 0.44 95 1006.1
20260505070306 33 60 1.0 2.0 0.24 1.00 0.44 96 1006.0
20260505065306 33 112 0.0 1.0 0.15 0.77 0.21 96 1006.2
20260505064806 34 72 1.0 1.0 0.15 0.77 0.21 96 1006.2
20260505063806 34 73 0.0 1.0 0.17 0.77 0.21 95 1014.0
20260505063306 32 120 0.0 2.0 0.18 0.77 0.21 89 1006.1
20260505062806 33 189 0.0 5.0 0.18 0.77 0.21 95 1006.3
20260505062307 35 163 3.0 5.0 0.18 0.77 0.21 95 1006.3
20260505061806 34 195 2.0 5.0 0.19 0.77 0.21 95 1010.6
20260505061306 34 178 1.0 3.0 0.19 0.77 0.21 95 1006.4
20260505060806 34 136 1.0 2.0 0.19 0.77 0.21 95 1006.1
20260505060306 34 125 1.0 2.0 0.18 0.76 0.20 95 1012.2
20260505055806 34 161 1.0 3.0 0.07 0.63 0.07 87 1006.2
20260505055305 35 159 2.0 5.0 0.07 0.62 0.06 95 1014.3
20260505054805 37 156 2.0 6.0 0.06 0.62 0.06 84 1006.1
20260505054306 37 153 2.0 5.0 0.06 0.60 0.04 95 1014.6
20260505053806 38 200 1.0 2.0 0.06 0.60 0.04 88 1006.0
20260505053306 37 88 1.0 2.0 0.06 0.59 0.03 95 1010.9
20260505052806 37 61 0.0 1.0 0.06 0.59 0.03 95 1006.2
20260505051306 38 237 0.0 1.0 0.06 0.58 0.02 95 1006.2
20260505050306 36 114 0.0 3.0 0.07 0.58 0.02 86 1006.3
20260505040806 39 59 3.0 3.0 0.04 0.52 0.52 92 1013.3
20260505040305 38 64 2.0 5.0 0.05 0.52 0.52 93 1006.1
20260505035806 39 23 1.0 6.0 0.05 0.50 0.50 92 1007.5
20260505035306 37 61 3.0 6.0 0.05 0.50 0.50 94 1006.3
20260505034305 37 47 3.0 5.0 0.05 0.50 0.50 93 1006.2
20260505033806 38 59 3.0 5.0 0.05 0.49 0.49 92 1007.1
20260505033306 39 46 2.0 5.0 0.06 0.49 0.49 91 1007.7
20260505032806 38 58 3.0 5.0 0.06 0.49 0.49 92 1006.4
20260505032306 39 60 3.0 6.0 0.06 0.48 0.48 92 1007.4
20260505031806 37 77 2.0 3.0 0.07 0.48 0.48 93 1008.2
20260505031306 38 69 0.0 5.0 0.07 0.48 0.48 92 1006.9
20260505030305 38 55 3.0 5.0 0.08 0.47 0.47 92 1006.5
20260505024306 40 76 3.0 6.0 0.13 0.44 0.44 93 1007.4
20260505023806 38 73 3.0 5.0 0.17 0.44 0.44 92 1006.2
20260505023305 39 84 3.0 5.0 0.20 0.44 0.44 92 1006.9
20260505022305 39 95 1.0 5.0 0.26 0.42 0.42 92 1006.7
20260505021805 40 68 3.0 6.0 0.26 0.41 0.41 92 1007.4
20260505021305 38 53 5.0 6.0 0.26 0.40 0.40 79 1006.1
20260505020306 38 222 1.0 3.0 0.25 0.38 0.38 80 1005.9
20260505015806 40 15 1.0 5.0 0.24 0.36 0.36 91 1006.7
20260505015306 38 79 2.0 5.0 0.23 0.36 0.36 89 1005.5
20260505014805 39 312 2.0 16.0 0.21 0.34 0.34 77 1006.1
20260505014307 40 65 7.0 16.0 0.19 0.32 0.32 87 1007.1
20260505013805 39 63 6.0 17.0 0.14 0.27 0.27 86 1005.9
20260505013306 40 96 6.0 17.0 0.10 0.23 0.23 85 1006.6
20260505012306 42 37 6.0 22.0 0.03 0.16 0.16 80 1006.2
20260505011805 42 66 17.0 22.0 0.02 0.15 0.15 78 1004.7
20260505011305 44 67 6.0 21.0 0.01 0.14 0.14 73 1004.3
20260505010805 46 62 13.0 20.0 0.01 0.14 0.14 68 1006.3
20260505010306 46 73 9.0 20.0 0.01 0.14 0.14 68 1005.1
20260505005805 49 47 5.0 10.0 0.00 0.13 0.13 73 1005.9
20260505005306 47 250 2.0 5.0 0.00 0.13 0.13 74 1004.8
20260505004805 49 210 2.0 8.0 0.00 0.13 0.13 74 1005.7
20260505004305 48 164 4.0 7.0 0.00 0.13 0.13 71 1004.6
20260505003805 58 231 2.0 3.0 0.00 0.13 0.13 67 1005.3
20260505003306 47 206 3.0 5.0 0.00 0.13 0.13 68 1004.1
20260505002306 58 17 1.0 5.0 0.00 0.13 0.13 49 1005.7
20260505001805 58 29 1.0 6.0 0.00 0.13 0.13 66 1004.6
20260505001305 58 22 3.0 6.0 0.00 0.13 0.13 49 1005.4
20260505000805 58 14 3.0 6.0 0.00 0.13 0.13 65 1004.4
20260505000306 58 219 2.0 5.0 0.00 0.13 0.13 65 1005.4
20260504235804 49 354 2.0 5.0 0.00 0.13 0.13 67 1004.6
20260504234806 49 23 2.0 5.0 0.00 0.13 0.13 65 1004.4
20260504234305 50 276 2.0 7.0 0.00 0.13 0.13 68 1005.5
20260504233305 49 192 2.0 7.0 0.00 0.13 0.13 68 1005.1
20260504232805 51 146 3.0 5.0 0.00 0.13 0.13 68 1005.8
20260504232306 49 62 3.0 7.0 0.00 0.13 0.13 69 1004.8
20260504231806 50 22 2.0 6.0 0.00 0.13 0.13 53 1005.8
20260504231306 48 25 2.0 5.0 0.00 0.13 0.13 68 1004.7